Location: Acequia del Cap
(41.7000°N, 0.6167°E)
Time: 00:01:38
(UTC+00:00)

Resurs 1-4 Rocket - Pass Details

Date: 07 August 2020
Orbit: 799 x 815 km, 98.6° (Epoch: 22 September)

Event Time Altitude Azimuth Distance (km) Brightness Sun altitude
Rises 01:31:53 0° 14° (NNE) 3,330 6.5 -28.5°
Reaches altitude 10° 01:34:14 10° 15° (NNE) 2,393 5.5 -28.3°
Enters shadow 01:39:23 81° 73° (ENE) 818 2.0 -27.9°
